Location: Olsztyn
(53.7767°N, 20.4765°E)
Time: 18:53:32
(UTC+02:00)

A-11 Canister half - Pass Details

Date: 28 January 2022
Orbit: 1513 x 1686 km, 47.2° (Epoch: 24 May)

Event Time Altitude Azimuth Distance (km) Brightness Sun altitude
Rises 19:12:43 0° 268° (W) 4,723 12.9 -26.5°
Reaches altitude 10° 19:15:51 10° 265° (W) 3,721 12.0 -26.9°
Maximum altitude 19:24:53 56° 191° (S) 1,760 9.2 -28.3°
Enters shadow 19:27:34 43° 143° (SE) 2,011 9.2 -28.7°
